[[{"header":{"parameterUnit":"m.s-1","parameterCategory":1,"la1":30.2991,"la2":30.254,"lo1":-89.0895,"lo2":-89.0444,"dy":0.0017,"dx":0.0017,"nx":28,"ny":28,"refTime":"2025-11-29T03:00:00:Z","depth":0,"parameterNumber":2,"parameterNumberName":"U-component_of_WINDS"},"data":[0,0,0,0,0,0,0,0,0,0,0,0,0,0,0,0,0,0,0,0,0,0,0,0,0,0,0,0,0,0,0,0,0,0,0,0,0,0,0,0,0,0,0,0,0,0,0,0,0,0,0,0,0,0,0,0,0,0,-6.6642,-6.6643,0,-6.6777,-6.6779,-6.678,-6.6744,-6.6741,-6.6738,-6.6736,-6.6872,-6.6878,-6.6884,0,0,0,0,0,0,0,0,0,0,0,0,0,-6.635,-6.6355,-6.6642,-6.6643,-6.6645,-6.6777,-6.6779,-6.6781,-6.6744,-6.6741,-6.6737,-6.6734,-6.687,-6.6877,-6.6885,0,0,0,0,0,0,0,0,0,0,0,0,0,-6.648,-6.6357,-6.6641,-6.6643,-6.6644,-6.6776,-6.6779,-6.6781,-6.6745,-6.6741,-6.6737,-6.6733,-6.6868,-6.6877,-6.6886,-6.7024,0,0,-6.6914,-6.6918,0,0,0,0,0,0,0,0,-6.6473,-6.6491,-6.6641,-6.6643,-6.6645,-6.6739,-6.6726,-6.6862,-6.6746,-6.6707,-6.6736,-6.6731,-6.6831,-6.6843,-6.6877,-6.7031,-6.7036,-6.6915,-6.692,-6.6924,-6.6927,0,0,0,0,0,0,0,-6.6464,-6.6485,-6.6695,-6.6643,-6.6646,-6.6636,-6.665,-6.6752,-6.679,-6.671,-6.6707,-6.6724,-6.6831,-6.6868,-6.688,-6.7038,-6.6915,-6.6923,-6.6928,-6.6932,-6.731,-6.7314,0,0,0,0,0,0,-6.6453,-6.6477,-6.6691,-6.6699,-6.6547,-6.6645,-6.666,-6.6713,-6.6789,-6.6796,-6.6727,-6.6722,-6.6855,-6.6869,-6.6885,-6.7049,-6.6924,-6.6933,-6.6938,-6.7305,-6.7311,-6.7316,0,0,0,0,0,0,-6.6447,-6.6473,-6.6685,-6.6588,-6.6614,-6.6654,-6.6714,-6.6718,-6.6755,-6.6802,-6.6808,-6.6758,-6.6852,-6.6872,-6.6989,-6.7053,-6.6937,-6.6946,-6.73,-6.7307,-6.7313,-6.7381,0,0,0,0,0,0,-6.6439,-6.6471,-6.6524,-6.6589,-6.662,-6.6788,-6.6718,-6.6723,-6.6771,-6.6765,-6.6833,-6.684,-6.685,-6.6976,-6.6999,-6.7064,-6.6953,-6.7294,-6.7303,-6.7311,-6.7373,-6.7389,-6.7403,0,0,0,0,0,-6.6429,-6.6538,-6.6527,-6.6553,-6.6687,-6.6792,-6.6809,-6.6819,-6.6777,-6.683,-6.686,-6.6838,-6.7044,-6.6988,-6.7014,-6.7083,-6.729,-6.7301,-6.7311,-6.7366,-6.7386,-6.7402,0,0,0,0,0,0,-6.6478,-6.6546,-6.6535,-6.6669,-6.6725,-6.6786,-6.6853,-6.684,-6.6909,-6.6901,-6.691,-6.6926,-6.7045,-6.7077,-6.7013,-6.722,-6.7161,-6.7176,-6.7194,-6.7213,-6.7228,-6.7216,-6.696,0,0,0,0,0,-6.6505,-6.6585,-6.664,-6.6753,-6.6782,-6.6813,-6.6859,-6.6862,-6.6921,-6.6944,-6.6983,-6.704,-6.7117,-6.7168,-6.7242,-6.7379,-6.7391,-6.7439,-6.7454,-6.7466,-6.7478,-6.755,-6.7571,-6.7349,-6.7349,-6.7349,0,0,-6.656,-6.6607,-6.6657,-6.6764,-6.6808,-6.6889,-6.6833,-6.6922,-6.6982,-6.6957,-6.7069,-6.7101,-6.7165,-6.7292,-6.735,-6.7322,-6.7543,-6.7479,-6.7488,-6.7493,-6.7563,-6.7584,-6.7602,-6.7356,-6.7355,-6.7353,0,0,-6.6701,-6.6747,-6.6844,-6.6889,-6.6957,-6.6977,-6.7001,-6.7064,-6.7084,-6.7198,-6.718,-6.7252,-6.7386,-6.7432,-6.7472,-6.7633,-6.7614,-6.7657,-6.7733,-6.7803,-6.7821,-6.7836,-6.789,-6.7909,-6.767,-6.767,-6.767,0,-6.676,-6.6883,-6.6895,-6.6986,-6.7032,-6.7015,-6.7112,-6.7156,-6.7245,-6.7277,-6.7244,-6.7411,-6.7454,-6.759,-6.7629,-6.7664,-6.7689,-6.7647,-6.7818,-6.7833,-6.7848,-6.7899,-6.7919,-6.7674,-6.7674,-6.7673,-6.7673,0,-6.6951,-6.7037,-6.7108,-6.7193,-6.7248,-6.7342,-6.7367,-6.7422,-6.7421,-6.7444,-6.756,-6.761,-6.7693,-6.7727,-6.7727,-6.7864,-6.7843,-6.7815,-6.7754,-6.7873,-6.7921,-6.7941,-6.7681,-6.7679,-6.7678,-6.7677,0,0,-6.7124,-6.7216,-6.7241,-6.7279,-6.7353,-6.7419,-6.7512,-6.7594,-6.7639,-6.7702,-6.7778,-6.7892,-6.7866,-6.7912,-6.7918,-6.7981,-6.81,-6.7944,-6.7946,-6.7968,-6.825,-6.8268,-6.829,-6.8091,-6.8095,-6.8098,-6.8243,0,-6.7268,-6.7431,-6.7445,-6.7592,-6.7669,-6.7655,-6.7736,-6.779,-6.7815,-6.7884,-6.7912,-6.7992,-6.7953,-6.798,-6.8042,-6.8073,-6.8156,-6.8063,-6.8159,-6.8162,-6.8138,-6.8316,-6.8335,-6.847,-6.8263,-6.8266,-6.8268,0,-6.7458,-6.7525,-6.7679,-6.7742,-6.7775,-6.7847,-6.7922,-6.799,-6.8051,-6.8064,-6.8117,-6.8115,-6.8209,-6.8149,-6.8278,-6.8215,-6.8255,-6.8277,-6.8282,-6.8288,-6.8219,-6.8322,-6.8514,-6.8532,-6.8299,-6.8296,-6.8294,0,-6.7563,-6.7693,-6.7801,-6.7835,-6.7912,-6.7962,-6.7996,-6.8053,-6.8101,-6.8168,-6.8198,-6.8276,-6.8317,-6.8376,-6.8394,-6.835,-6.8522,-6.8464,-6.8533,-6.8533,-6.8566,-6.8563,-6.8762,-6.86,-6.86,-6.86,-6.8599,0,-6.772,-6.7814,-6.7849,-6.7915,-6.802,-6.8036,-6.8138,-6.817,-6.8221,-6.8292,-6.8286,-6.8353,-6.8375,-6.8446,-6.8461,-6.8564,-6.8584,-6.8596,-6.8598,-6.8594,-6.8591,-6.8617,-6.8606,-6.8605,-6.8604,-6.8603,-6.8602,0,-6.7853,-6.7881,-6.7998,-6.8061,-6.8079,-6.8153,-6.8206,-6.827,-6.8295,-6.8385,-6.8407,-6.8446,-6.8529,-6.8554,-6.8654,-6.8664,-6.8784,-6.878,-6.8762,-6.8761,-6.8828,-6.8819,-6.9047,-6.9076,-6.8899,-6.8901,-6.8902,0,-6.7949,-6.8021,-6.8092,-6.8139,-6.8175,-6.8252,-6.8301,-6.832,-6.8371,-6.8446,-6.85,-6.8582,-6.8648,-6.8781,-6.8818,-6.8894,-6.8889,-6.8964,-6.89,-6.8893,-6.8885,-6.8879,-6.8884,-6.8974,-6.8976,-6.8977,-6.8978,0,-6.8115,-6.8126,-6.8196,-6.8273,-6.8331,-6.8392,-6.8451,-6.849,-6.8517,-6.8575,-6.866,-6.8711,-6.8813,-6.8894,-6.8972,-6.9006,-6.8996,-6.8999,-6.9018,-6.9012,-6.8998,-6.9002,-6.879,-6.8992,-6.8991,-6.899,-6.8989,-6.8989,-6.823,-6.8292,-6.8351,-6.843,-6.8477,-6.8531,-6.8593,-6.8627,-6.8698,-6.8782,-6.879,-6.888,-6.8939,-6.9042,-6.9081,-6.9152,-6.913,-6.9159,-6.9165,-6.9171,-6.9174,-6.8991,-6.9167,-6.9166,-6.9166,-6.9166,-6.9165,0,-6.8392,-6.843,-6.8503,-6.8584,-6.8646,-6.8634,-6.8699,-6.875,-6.883,-6.8887,-6.8952,-6.9049,-6.9127,-6.9171,-6.9249,-6.9297,-6.9295,-6.9317,-6.9311,-6.9318,-6.9191,-6.9165,-6.9317,-6.9317,-6.9317,-6.9317,-6.9317,-6.9317,-6.8483,-6.8586,-6.8604,-6.873,-6.8768,-6.8856,-6.8894,-6.8944,-6.8989,-6.9097,-6.9162,-6.9191,-6.9241,-6.9323,-6.9394,-6.9405,-6.9432,-6.9456,-6.9464,-6.9344,-6.9328,-6.9313,-6.9288,-6.9463,-6.9464,-6.9585,-6.9586,-6.9587]},{"header":{"parameterUnit":"m.s-1","parameterCategory":1,"la1":30.2991,"la2":30.254,"lo1":-89.0895,"lo2":-89.0444,"dy":0.0017,"dx":0.0017,"nx":28,"ny":28,"refTime":"2025-11-29T03:00:00:Z","depth":0,"parameterNumber":3,"parameterNumberName":"V-component_of_WINDS"},"data":[0,0,0,0,0,0,0,0,0,0,0,0,0,0,0,0,0,0,0,0,0,0,0,0,0,0,0,0,0,0,0,0,0,0,0,0,0,0,0,0,0,0,0,0,0,0,0,0,0,0,0,0,0,0,0,0,0,0,4.4549,4.4548,0,4.449,4.4489,4.4488,4.4314,4.431,4.4307,4.4303,4.4247,4.4249,4.4251,0,0,0,0,0,0,0,0,0,0,0,0,0,4.4517,4.4519,4.4549,4.4548,4.4548,4.449,4.4489,4.4488,4.4315,4.431,4.4306,4.4301,4.4246,4.4248,4.4251,0,0,0,0,0,0,0,0,0,0,0,0,0,4.4502,4.4519,4.4549,4.4454,4.4445,4.449,4.4489,4.4488,4.4316,4.431,4.4304,4.4299,4.4245,4.4248,4.4251,4.4385,0,0,4.4261,4.4262,0,0,0,0,0,0,0,0,4.4503,4.4503,4.4469,4.4461,4.4451,4.4403,4.4457,4.4453,4.4317,4.4365,4.4303,4.4296,4.4304,4.4302,4.4303,4.4382,4.438,4.4261,4.4263,4.4264,4.4265,0,0,0,0,0,0,0,4.4504,4.4505,4.4525,4.4469,4.4457,4.4416,4.4407,4.4455,4.4367,4.436,4.4348,4.4343,4.4298,4.4301,4.4301,4.4379,4.4261,4.4263,4.4265,4.4267,4.4563,4.4569,0,0,0,0,0,0,4.4518,4.4507,4.4527,4.4524,4.4463,4.4421,4.4412,4.4424,4.4366,4.4352,4.4348,4.4335,4.4298,4.4297,4.4298,4.4448,4.4264,4.4267,4.4269,4.4557,4.4565,4.4571,0,0,0,0,0,0,4.4518,4.4522,4.453,4.4512,4.451,4.4428,4.4444,4.4426,4.4429,4.4357,4.434,4.4367,4.4294,4.4294,4.4364,4.4444,4.4268,4.4271,4.455,4.456,4.4568,4.4752,0,0,0,0,0,0,4.4518,4.4523,4.4571,4.4514,4.4511,4.4596,4.4448,4.4429,4.4434,4.4417,4.437,4.4357,4.4289,4.436,4.4367,4.4445,4.4273,4.4543,4.4554,4.4565,4.4738,4.4766,4.479,0,0,0,0,0,4.4518,4.4627,4.4575,4.4578,4.457,4.4601,4.4599,4.4518,4.4441,4.449,4.4444,4.4358,4.4435,4.4369,4.4375,4.4455,4.4537,4.4551,4.4564,4.4727,4.4761,4.479,0,0,0,0,0,0,4.4697,4.4617,4.4559,4.4652,4.4635,4.4571,4.463,4.4557,4.4561,4.4545,4.4445,4.4436,4.452,4.4495,4.4423,4.4581,4.4472,4.4488,4.4594,4.4625,4.4651,4.4654,4.4276,0,0,0,0,0,4.4747,4.4777,4.4707,4.4796,4.479,4.4713,4.4723,4.4662,4.464,4.4631,4.459,4.4574,4.4593,4.4609,4.4623,4.4736,4.4722,4.4794,4.482,4.4842,4.4855,4.4912,4.4942,4.4616,4.4616,4.4616,0,0,4.4851,4.4812,4.4837,4.4831,4.481,4.4844,4.4707,4.4749,4.4774,4.4638,4.47,4.4671,4.4646,4.4737,4.4775,4.4719,4.4943,4.4859,4.4877,4.4878,4.4929,4.496,4.4987,4.4625,4.4623,4.4622,0,0,4.5057,4.5032,4.5102,4.5084,4.5053,4.5001,4.5019,4.4967,4.4941,4.5002,4.4901,4.493,4.4967,4.4953,4.4951,4.5154,4.5075,4.5163,4.5296,4.5353,4.5378,4.5401,4.5471,4.5498,4.5177,4.5178,4.5178,0,4.5191,4.5236,4.5148,4.5196,4.5197,4.5076,4.5147,4.5134,4.5111,4.5115,4.5052,4.5095,4.507,4.5156,4.5206,4.5209,4.5226,4.5165,4.5382,4.5403,4.5422,4.5489,4.5516,4.5188,4.5187,4.5186,4.5185,0,4.5401,4.5435,4.5496,4.5475,4.5483,4.5543,4.5465,4.5484,4.5424,4.5379,4.5443,4.5409,4.5414,4.5431,4.5373,4.5509,4.5475,4.5399,4.5286,4.5466,4.5526,4.5551,4.5203,4.5199,4.5196,4.5194,0,0,4.5715,4.5645,4.5668,4.5657,4.5615,4.564,4.5696,4.57,4.5717,4.5707,4.5751,4.5786,4.5715,4.5713,4.5653,4.5703,4.5864,4.562,4.5618,4.5664,4.601,4.6065,4.6096,4.5814,4.5818,4.5822,4.6012,0,4.5907,4.5995,4.5918,4.6021,4.6051,4.5938,4.5986,4.5967,4.5928,4.5948,4.5906,4.5931,4.5837,4.5834,4.5879,4.5835,4.5932,4.5821,4.5852,4.5855,4.5858,4.6128,4.6186,4.6366,4.6035,4.6039,4.6042,0,4.6142,4.614,4.6246,4.6197,4.6207,4.6252,4.6249,4.6271,4.6247,4.6215,4.6214,4.6141,4.6193,4.6086,4.6157,4.6083,4.6092,4.6074,4.6079,4.6075,4.5956,4.6129,4.6422,4.6449,4.6079,4.6076,4.6073,0,4.6357,4.6382,4.6447,4.6442,4.6388,4.6421,4.6401,4.6372,4.6379,4.6378,4.6382,4.6389,4.6391,4.6399,4.633,4.6259,4.6409,4.6297,4.6383,4.6385,4.6417,4.6415,4.6712,4.6429,4.6429,4.6428,4.6428,0,4.6577,4.6646,4.6542,4.6583,4.6657,4.657,4.6646,4.6614,4.6589,4.6622,4.6527,4.6561,4.6469,4.6493,4.6441,4.6506,4.651,4.6485,4.6469,4.6491,4.6494,4.6493,4.6477,4.6435,4.6434,4.6433,4.6431,0,4.6827,4.6761,4.6825,4.6769,4.6757,4.6814,4.6766,4.6802,4.6757,4.68,4.6806,4.6736,4.676,4.6693,4.6707,4.6672,4.6766,4.6732,4.6773,4.6761,4.6851,4.6842,4.7155,4.7191,4.6889,4.6892,4.6894,0,4.697,4.702,4.697,4.6984,4.6968,4.6993,4.7,4.6918,4.6929,4.6907,4.6946,4.6962,4.6969,4.7013,4.6965,4.6976,4.6939,4.7048,4.694,4.696,4.6937,4.6934,4.6938,4.7069,4.7073,4.7076,4.7079,0,4.7231,4.7196,4.7208,4.721,4.722,4.7218,4.7209,4.7227,4.7139,4.7158,4.718,4.7186,4.72,4.7217,4.7218,4.7198,4.7124,4.7114,4.7134,4.7155,4.7175,4.7163,4.6831,4.7106,4.7103,4.7101,4.71,4.7099,4.7429,4.7467,4.7437,4.7455,4.744,4.7434,4.7464,4.7424,4.744,4.7444,4.7396,4.7429,4.7406,4.7398,4.7387,4.7412,4.7362,4.7392,4.7398,4.7406,4.742,4.7175,4.7412,4.7411,4.7411,4.741,4.7409,0,4.7681,4.7657,4.7674,4.7664,4.7678,4.7608,4.7595,4.7612,4.7641,4.7626,4.7635,4.7662,4.7678,4.7633,4.7642,4.7672,4.7638,4.7677,4.7672,4.7668,4.7465,4.7445,4.7704,4.7704,4.7704,4.7703,4.7703,4.7703,4.7814,4.7874,4.7837,4.789,4.7865,4.7895,4.7894,4.7889,4.7875,4.7909,4.7921,4.7891,4.7864,4.7871,4.7884,4.787,4.7877,4.7927,4.7902,4.7712,4.7683,4.7655,4.7636,4.793,4.793,4.8102,4.8103,4.8105]}]]